Location: Blangy-Tronville
(49.8790°N, 2.4226°E)
Time: 07:40:38
(UTC+00:00)

Cosmos 1269 Rocket - Pass Details

Date: 18 November 2025
Orbit: 768 x 775 km, 74.1° (Epoch: 06 December)

Event Time Altitude Azimuth Distance (km) Brightness Sun altitude
Rises 17:11:30 0° 212° (SSW) 3,229 8.1 -11.0°
Reaches altitude 10° 17:13:54 10° 216° (SW) 2,308 7.3 -11.3°
Maximum altitude 17:19:05 62° 297° (WNW) 866 4.5 -12.1°
Drops below altitude 10° 17:24:20 10° 19° (NNE) 2,328 6.2 -13.0°
Enters shadow 17:26:08 - 22° (NNE) 3,019 6.7 -13.2°
